Home   Weather   Valencia   Past weeks

Flag for Spain Past Weather in Valencia, Spain — Yesterday and Last 2 Weeks

Now
57 °F

Scattered clouds.


Feels Like: 57 °F
Forecast: 58 / 62 °F
Wind: 3 mph from Northwest

Location: Valencia / Aeropuerto

Current Time: Dec 3, 2016 at 12:47:37 pm

Latest Report: Dec 3, 2016 at 12:00 pm


Visibility: N/A

Pressure: 30.01 "Hg

Humidity: 77%

Dew Point: 50 °F

Location of ValenciaLocation

Past Weather in Valencia — Graph

°F

Valencia Temperature Yesterday

Maximum temperature yesterday: 63 °F (at 12:30 pm)
Minimum temperature yesterday: 45 °F (at 8:30 am)
Average temperature yesterday: 53 °F

High & Low Weather Summary for the Past Weeks

 TemperatureHumidityPressure
High77 °F (Nov 18, 2:30 pm)100% (Nov 22, 9:00 am)30.45 "Hg (Nov 22, 9:00 am)
Low41 °F (Nov 25, 8:00 am)30% (Nov 18, 2:30 pm)29.56 "Hg (Nov 23, 4:30 am)
Average56 °F80%29.92 "Hg
* Reported Nov 18 11:00 am — Dec 3 11:30 am, Valencia, Weather by CustomWeather, © 2016

Note: Actual official high and low records may vary slightly from our data, if they occured in-between our weather recording intervals... More about our weather records

Advertising

Valencia Weather History for the Previous 24 Hours

Scroll right to see more
 ConditionsComfort  
Time TempWeatherWind HumidityBarometerVisibility
11:30 am
Sat, Dec 3
55 °FPartly sunny.1 mph77%30.01 "HgN/A
11:00 am54 °FPartly sunny.2 mph82%30.01 "HgN/A
10:30 am52 °FPartly sunny.5 mph82%30.01 "HgN/A
10:00 am48 °FPartly sunny.2 mph94%29.98 "HgN/A
9:30 am46 °FPartly sunny.1 mph93%30.01 "HgN/A
9:00 am45 °FPartly sunny.2 mph100%29.98 "HgN/A
8:30 am45 °FPassing clouds.2 mph93%29.98 "HgN/A
8:00 am45 °FClear.1 mph93%29.98 "Hg10 mi
7:30 am45 °FClear.2 mph100%29.98 "Hg10 mi
7:00 am45 °FClear.2 mph100%29.95 "Hg10 mi
6:30 am45 °FClear.2 mph93%29.98 "Hg10 mi
6:00 am46 °FClear.No wind93%29.95 "Hg10 mi
5:30 am46 °FClear.2 mph93%29.95 "Hg10 mi
5:00 am46 °FClear.2 mph93%29.95 "Hg10 mi
4:30 am48 °FPassing clouds.3 mph94%29.98 "HgN/A
4:00 am48 °FPassing clouds.3 mph94%29.98 "HgN/A
3:30 am48 °FPassing clouds.2 mph94%29.98 "HgN/A
3:00 am48 °FPassing clouds.2 mph94%29.98 "HgN/A
2:30 am50 °FPassing clouds.5 mph94%29.98 "HgN/A
1:30 am50 °FPassing clouds.2 mph94%30.01 "HgN/A
1:00 am50 °FPassing clouds.1 mph94%30.01 "HgN/A
12:30 am50 °FPassing clouds.No wind94%30.01 "HgN/A
12:00 am50 °FPassing clouds.2 mph94%30.01 "HgN/A
11:30 pm
Fri, Dec 2
50 °FPassing clouds.3 mph94%30.01 "HgN/A
11:00 pm50 °FClear.3 mph94%30.01 "Hg10 mi
10:30 pm50 °FClear.1 mph94%30.01 "Hg10 mi
10:00 pm52 °FClear.5 mph94%30.01 "Hg10 mi
9:30 pm52 °FPassing clouds.5 mph94%30.01 "HgN/A
9:00 pm54 °FPassing clouds.2 mph88%30.01 "HgN/A
8:30 pm54 °FPassing clouds.3 mph88%30.01 "HgN/A
8:00 pm54 °FPassing clouds.2 mph94%30.01 "HgN/A
7:30 pm55 °FPassing clouds.2 mph88%30.01 "HgN/A
7:00 pm57 °FPassing clouds.1 mph82%30.01 "HgN/A
6:00 pm57 °FPassing clouds.5 mph88%30.01 "HgN/A
5:30 pm59 °FPassing clouds.8 mph82%30.01 "HgN/A
5:00 pm61 °FPassing clouds.8 mph77%30.01 "HgN/A
4:30 pm63 °FPassing clouds.8 mph68%30.01 "HgN/A
4:00 pm63 °FPassing clouds.8 mph68%30.01 "HgN/A
3:30 pm63 °FPassing clouds.6 mph68%30.01 "HgN/A
3:00 pm63 °FPassing clouds.3 mph68%30.04 "HgN/A
2:30 pm63 °FPassing clouds.5 mph68%30.04 "HgN/A
2:00 pm63 °FPassing clouds.3 mph64%30.04 "HgN/A
1:30 pm63 °FPassing clouds.No wind59%30.07 "HgN/A
1:00 pm63 °FPassing clouds.No wind59%30.09 "HgN/A
12:30 pm63 °FPassing clouds.No wind59%30.09 "HgN/A
12:00 pm61 °FPassing clouds.No wind63%30.12 "HgN/A
Weather by CustomWeather, © 2016

See weather overviewHow to use our weather pages